Weather reports worldwide

Advertisment
Pescara, Italy (16230): temperature & dewpoint: 15.05.2019 16:00:00 - 21.05.2019 16:00:00 (CEST)Pescara, Italy (16230): wind speed: 15.05.2019 16:00:00 - 21.05.2019 16:00:00 (CEST)Pescara, Italy (16230): wind direction: 15.05.2019 16:00:00 - 21.05.2019 16:00:00 (CEST)Pescara, Italy (16230): reduced air pressure: 15.05.2019 16:00:00 - 21.05.2019 16:00:00 (CEST)Pescara, Italy (16230): visibility: 15.05.2019 16:00:00 - 21.05.2019 16:00:00 (CEST)Pescara, Italy (16230): precipitation: 15.05.2019 16:00:00 - 21.05.2019 16:00:00 (CEST)
Date & Time tt [°C] td [°C] ff [km/h] ff [kn] dd ppp [hPa] vv [km] rr [mm]
21.05.2019 16:00:00 21,0 10,0 11 6 ENE - 10 -
21.05.2019 15:00:00 22,0 12,0 13 7 NE - 10 -
21.05.2019 14:00:00 21,6 11,4 13 7 NE 1011,9 20 -
21.05.2019 13:00:00 21,0 12,0 15 8 ENE - 10 -
21.05.2019 12:00:00 20,0 12,0 8 4 - - 10 -
21.05.2019 11:00:00 20,8 9,8 13 7 SW 1011,1 10 0,0
21.05.2019 10:00:00 21,0 9,0 21 11 SW - 10 -
21.05.2019 09:00:00 19,0 9,0 13 7 SW - 10 -
21.05.2019 08:00:00 19,0 8,7 4 2 N 1010,1 30 -
21.05.2019 07:00:00 16,0 8,0 4 2 SW - 10 -
21.05.2019 06:00:00 15,0 7,0 9 5 W - 10 -
21.05.2019 05:00:00 16,3 6,4 11 6 WSW 1009,4 10 0,0
21.05.2019 04:00:00 16,0 6,0 11 6 WSW - 10 -
21.05.2019 03:00:00 16,0 6,0 8 4 WSW - 10 -
21.05.2019 02:00:00 16,3 5,7 11 6 WSW 1010,0 10 -
21.05.2019 01:00:00 17,0 6,0 18 10 SW - 10 -
21.05.2019 00:00:00 16,0 6,0 22 12 SSW - 10 -
20.05.2019 23:00:00 15,9 6,1 18 10 SW 1009,7 20 0,0
20.05.2019 22:00:00 16,0 7,0 16 9 SW - 10 -
20.05.2019 21:00:00 18,0 6,0 16 9 SW - 10 -
20.05.2019 20:00:00 18,6 6,0 21 11 SW 1008,5 30 -
20.05.2019 19:00:00 20,0 7,0 28 15 SW - 10 -
20.05.2019 18:00:00 20,0 7,0 29 16 SW - 10 -
20.05.2019 17:00:00 20,3 7,2 26 14 SW 1008,5 30 0,0
20.05.2019 16:00:00 21,0 7,0 34 18 SSW - 10 -
20.05.2019 15:00:00 21,0 9,0 34 18 SW - 10 -
20.05.2019 14:00:00 21,9 5,0 9 5 WSW 1007,8 30 -
20.05.2019 13:00:00 22,0 8,0 24 13 SW - 10 -
20.05.2019 12:00:00 21,0 7,0 35 19 SSW - 10 -
20.05.2019 11:00:00 20,4 7,5 29 16 SSW 1007,9 30 0,0
20.05.2019 10:00:00 20,0 7,0 29 16 SW - 10 -
20.05.2019 09:00:00 19,0 6,0 26 14 SW - 10 -
20.05.2019 08:00:00 17,3 5,7 29 16 SW 1006,9 30 -
20.05.2019 07:00:00 16,0 5,0 18 10 SW - 10 -
20.05.2019 06:00:00 15,0 6,0 21 11 SW - 10 -
20.05.2019 05:00:00 16,7 5,5 28 15 SW 1006,1 15 0,0
20.05.2019 04:00:00 16,0 6,0 21 11 SW - 10 -
20.05.2019 03:00:00 16,0 6,0 18 10 SW - 10 -
20.05.2019 02:00:00 15,9 5,6 16 9 SW 1006,3 30 -
20.05.2019 01:00:00 16,0 6,0 22 12 SW - 10 -
20.05.2019 00:00:00 16,0 7,0 18 10 SW - 10 -
19.05.2019 23:00:00 15,9 7,1 9 5 WSW 1006,3 10 0,0
19.05.2019 22:00:00 16,0 8,0 16 9 SW - 10 -
19.05.2019 21:00:00 17,0 13,0 5 3 E - 10 -
19.05.2019 20:00:00 17,6 12,7 8 4 ESE 1005,0 10 -
19.05.2019 19:00:00 19,0 14,0 8 4 E - 10 -
19.05.2019 18:00:00 19,0 14,0 11 6 N - 10 -
19.05.2019 17:00:00 18,8 13,2 16 9 N 1004,2 20 0,0
19.05.2019 16:00:00 20,0 14,0 9 5 NE - 10 -
19.05.2019 15:00:00 18,0 14,0 8 4 NE - 10 -
19.05.2019 14:00:00 18,0 14,0 13 7 ENE 1003,8 15 -
19.05.2019 13:00:00 18,0 15,0 9 5 NE - 10 -
19.05.2019 12:00:00 20,0 14,0 15 8 NE - 10 -
19.05.2019 11:00:00 19,8 12,7 5 3 - 1003,5 10 0,0
19.05.2019 10:00:00 19,0 14,0 9 5 - - 10 -
19.05.2019 09:00:00 17,0 14,0 5 3 S - 10 -
19.05.2019 08:00:00 14,8 12,3 4 2 S 1004,4 25 -
19.05.2019 07:00:00 13,0 12,0 8 4 WSW - 10 -
19.05.2019 06:00:00 12,0 11,0 4 2 - - 10 -
19.05.2019 05:00:00 12,6 10,9 5 3 WSW 1004,5 10 0,0
19.05.2019 04:00:00 13,0 12,0 9 5 SSW - 10 -
19.05.2019 03:00:00 13,0 12,0 5 3 SW - 10 -
19.05.2019 02:00:00 12,8 11,7 4 2 W 1005,4 10 -
19.05.2019 01:00:00 13,0 12,0 4 2 - - 10 -
19.05.2019 00:00:00 14,0 13,0 4 2 - - 9 -
18.05.2019 23:00:00 15,1 13,1 5 3 NNE 1005,5 20 0,0
18.05.2019 22:00:00 16,0 14,0 8 4 NW - 10 -
18.05.2019 21:00:00 17,0 14,0 9 5 - - 10 -
18.05.2019 20:00:00 17,8 14,4 5 3 NNE 1004,8 25 -
18.05.2019 19:00:00 20,0 14,0 15 8 ENE - 10 -
18.05.2019 18:00:00 22,0 9,0 11 6 SSW - 10 -
18.05.2019 17:00:00 22,8 9,5 13 7 SSE 1003,7 15 0,0
18.05.2019 16:00:00 23,0 10,0 21 11 SSE - 10 -
18.05.2019 15:00:00 23,0 10,0 22 12 SSE - 10 -
18.05.2019 14:00:00 22,8 11,0 18 10 SSE 1003,9 20 -
18.05.2019 13:00:00 22,0 12,0 15 8 S - 10 -
18.05.2019 12:00:00 20,0 13,0 4 2 - - 10 -
18.05.2019 11:00:00 18,3 13,8 4 2 WSW 1004,9 12 0,0
18.05.2019 10:00:00 16,0 13,0 4 2 - - 10 -
18.05.2019 09:00:00 14,0 12,0 4 2 - - 10 -
18.05.2019 08:00:00 12,6 11,4 4 2 SW 1005,1 15 -
18.05.2019 07:00:00 11,0 10,0 8 4 WSW - 10 -
18.05.2019 06:00:00 10,0 9,0 9 5 SSW - 10 -
18.05.2019 05:00:00 11,1 10,4 8 4 WSW 1006,0 20 0,0
18.05.2019 04:00:00 - - - - - - - -
18.05.2019 03:00:00 - - - - - - - -
18.05.2019 02:00:00 12,5 11,5 4 2 SSW 1007,1 20 -
18.05.2019 01:00:00 - - - - - - - -
18.05.2019 00:00:00 15,0 13,0 5 3 ENE - 10 -
17.05.2019 23:00:00 15,6 12,5 4 2 NE 1008,9 15 0,0
17.05.2019 22:00:00 16,0 13,0 4 2 - - 10 -
17.05.2019 21:00:00 16,0 12,0 8 4 ENE - 10 -
17.05.2019 20:00:00 16,4 12,3 11 6 ENE 1008,6 28 -
17.05.2019 19:00:00 18,0 11,0 13 7 ENE - 10 -
17.05.2019 18:00:00 18,0 13,0 13 7 ENE - 10 -
17.05.2019 17:00:00 18,2 12,2 13 7 ENE 1009,2 30 0,0
17.05.2019 16:00:00 18,0 12,0 18 10 ENE - 10 -
17.05.2019 15:00:00 19,0 12,0 18 10 ENE - 10 -
17.05.2019 14:00:00 19,1 11,6 18 10 E 1010,0 10 -
17.05.2019 13:00:00 19,0 11,0 18 10 ENE - 10 -
17.05.2019 12:00:00 19,0 11,0 16 9 NE - 10 -
17.05.2019 11:00:00 18,0 11,5 16 9 ENE 1010,7 10 0,0
17.05.2019 10:00:00 17,0 11,0 9 5 NNE - 10 -
17.05.2019 09:00:00 15,0 10,0 4 2 - - 10 -
17.05.2019 08:00:00 12,7 9,6 4 2 N 1011,4 60 -
17.05.2019 07:00:00 10,0 9,0 8 4 SW - 10 -
17.05.2019 06:00:00 8,0 8,0 5 3 WSW - 10 -
17.05.2019 05:00:00 8,0 7,4 4 2 SSW 1010,9 20 0,0
17.05.2019 04:00:00 8,0 8,0 5 3 SW - 10 -
17.05.2019 03:00:00 9,0 8,0 4 2 WSW - 10 -
17.05.2019 02:00:00 8,8 8,0 5 3 SW 1011,7 30 -
17.05.2019 01:00:00 8,0 7,0 9 5 SSW - 10 -
17.05.2019 00:00:00 9,0 8,0 8 4 SW - 10 -
16.05.2019 23:00:00 10,5 9,0 5 3 SSW 1012,7 20 0,0
16.05.2019 22:00:00 12,0 9,0 5 3 SW - 10 -
16.05.2019 21:00:00 13,0 9,0 4 2 - - 10 -
16.05.2019 20:00:00 13,9 8,6 8 4 NNE 1012,1 30 -
16.05.2019 19:00:00 16,0 9,0 11 6 NE - 10 -
16.05.2019 18:00:00 17,0 9,0 13 7 NE - 10 -
16.05.2019 17:00:00 17,1 9,6 15 8 ENE 1011,6 30 0,0
16.05.2019 16:00:00 17,0 9,0 15 8 NE - 10 -
16.05.2019 15:00:00 17,0 8,0 13 7 NNE - 10 -
16.05.2019 14:00:00 17,0 8,3 9 5 NE 1012,3 30 -
16.05.2019 13:00:00 17,0 7,0 13 7 NE - 10 -
16.05.2019 12:00:00 15,0 8,0 8 4 - - 10 -
16.05.2019 11:00:00 13,6 9,0 15 8 SSW 1013,2 10 0,0
16.05.2019 10:00:00 12,0 10,0 11 6 SSW - 10 -
16.05.2019 09:00:00 11,0 9,0 11 6 SW - 10 -
16.05.2019 08:00:00 11,4 8,4 9 5 SW 1012,9 25 -
16.05.2019 07:00:00 11,0 8,0 5 3 - - 10 -
16.05.2019 06:00:00 11,0 8,0 9 5 SSW - 10 -
16.05.2019 05:00:00 10,7 8,1 8 4 SSW 1012,2 20 0,0
16.05.2019 04:00:00 11,0 8,0 9 5 SSW - 10 -
16.05.2019 03:00:00 11,0 9,0 9 5 SW - 10 -
16.05.2019 02:00:00 10,3 8,5 9 5 SSW 1013,0 10 -
16.05.2019 01:00:00 10,0 9,0 9 5 SSW - 10 -
16.05.2019 00:00:00 11,0 9,0 9 5 SSW - 10 -
15.05.2019 23:00:00 10,9 9,7 8 4 SW 1013,8 10 0,0
15.05.2019 22:00:00 12,0 8,0 4 2 - - 10 -
15.05.2019 21:00:00 13,0 7,0 5 3 NNW - 10 -
15.05.2019 20:00:00 12,6 7,1 5 3 NE 1012,9 18 -
15.05.2019 19:00:00 13,0 7,0 9 5 NNE - 10 -
15.05.2019 18:00:00 13,0 8,0 9 5 ENE - 10 -
15.05.2019 17:00:00 13,1 7,6 8 4 NE 1012,6 20 0,0
15.05.2019 16:00:00 13,0 7,0 9 5 NE - 10 -

tt = temperature
td = dewpoint
ff = wind speed
dd = wind direction
ppp = reduced air pressure
vv = visibility
rr = precipitation

Next stations